Regional Weather Roundup
Issued by NWS

Home | Current Version | Previous Version | Graphics & Text | Print | Product List | Glossary On
Versions: 1 2 3 4 5 6 7 8 9 10 11 12 13 14 15 16 17 18 19 20 21 22 23 24 25 26 27 28 29 30 31 32 33 34 35 36 37 38 39 40 41 42 43 44 45 46 47 48 49 50
000
ASUS43 KBIS 291810
RWRND

NORTH DAKOTA REGIONAL WEATHER ROUNDUP
NATIONAL WEATHER SERVICE BISMARCK ND
100 PM CDT WED JUL 29 2015

NOTE: "FAIR" INDICATES FEW OR NO CLOUDS BELOW 12,000 FEET WITH NO
SIGNIFICANT WEATHER AND/OR OBSTRUCTIONS TO VISIBILITY.


NDZ001>003-009>011-017-291900-
NORTHWEST NORTH DAKOTA

CITY           SKY/WX    TMP DP  RH WIND       PRES   REMARKS
WILLISTON      SUNNY     78  48  34 W22G29    30.05S
6HR MIN TEMP:  59; 6HR MAX TEMP:  78;

MINOT          FAIR      78  52  40 W23G35    29.95S
MINOT AFB      FAIR      77  58  50 W25       29.93F
$$

NDZ018>021-031>035-040>046-291900-
SOUTHWEST NORTH DAKOTA

CITY           SKY/WX    TMP DP  RH WIND       PRES   REMARKS
BISMARCK       MOSUNNY   79  48  33 NW23G35   30.04R
6HR MIN TEMP:  61; 6HR MAX TEMP:  79;

DICKINSON      PTSUNNY   75  46  35 W16G28    30.11S
GARRISON         N/A     74  53  48 W23G37    30.01R
6HR MIN TEMP:  59; 6HR MAX TEMP:  74;

HETTINGER ARPT PTSUNNY   76  44  32 W16       30.17R
$$

NDZ004>008-012>016-024-026-027-054-291900-
NORTHEAST NORTH DAKOTA

CITY           SKY/WX    TMP DP  RH WIND       PRES   REMARKS
GRAND FORKS    PTSUNNY   78  54  43 W28G39    29.79R
GRND FRKS AFB  FAIR      77  55  47 NW21G33   29.80R
DEVILS LAKE    FAIR      75  52  43 NW31G41   29.85R
$$

NDZ022-023-025-028>030-036>039-047>053-291900-
SOUTHEAST NORTH DAKOTA

CITY           SKY/WX    TMP DP  RH WIND       PRES   REMARKS
FARGO          PTSUNNY   78  55  44 W24G35    29.87R
6HR MIN TEMP:  65; 6HR MAX TEMP:  79;

JAMESTOWN      FAIR      78  51  38 NW25G35   29.95R
$$



USA.gov is the U.S. government's official web portal to all federal, state and local government web resources and services.